Location: Argonnex
(45.9500°N, 6.1333°E)
Time: 09:23:07
(UTC+00:00)

Cosmos 2266 Rocket - Pass Details

Date: 04 October 2023
Orbit: 933 x 1008 km, 82.9° (Epoch: 10 December)

Event Time Altitude Azimuth Distance (km) Brightness Sun altitude
Exits shadow 02:09:30 54° 28° (NNE) 1,205 4.6 -35.0°
Drops below altitude 10° 02:14:26 10° 12° (NNE) 2,795 6.9 -34.3°
Sets 02:16:59 0° 10° (N) 3,751 7.6 -34.0°
